Location: Waco, TX
(31.5480°N, 97.1670°W)
Time: 21:53:09
(UTC-06:00)

ISS - Pass Details

Date: 18 February 2019
Orbit: 403 x 411 km, 51.6° (Epoch: 22 February)

Event Time Altitude Azimuth Distance (km) Brightness Sun altitude
Rises 06:41:51 0° 183° (S) 2,299 0.1 -6.2°
Reaches altitude 10° 06:44:56 10° 150° (SSE) 1,445 -0.4 -5.6°
Maximum altitude 06:46:16 12° 126° (SE) 1,331 0.0 -5.3°
Drops below altitude 10° 06:47:36 10° 101° (E) 1,449 0.9 -5.0°
Sets 06:50:41 0° 69° (ENE) 2,313 1.1 -4.4°
